Printer-friendly version

IAU Minor Planet Center

Minor Planet Center

MPEC 2000-S62: 2000 SS43

The following Minor Planet Electronic Circular may be linked-to from your own Web pages, but must not otherwise be redistributed electronically.


Read MPEC 2000-S61 Read MPEC 2000-S63


M.P.E.C. 2000-S62                                Issued 2000 Sept. 28, 18:56 UT

     The Minor Planet Electronic Circulars contain information on unusual
         minor planets and routine data on comets.  They are published
   on behalf of Commission 20 of the International Astronomical Union by the
          Minor Planet Center, Smithsonian Astrophysical Observatory,
                          Cambridge, MA 02138, U.S.A.

             Prepared using the Tamkin Foundation Computer Network

                              MPC@CFA.HARVARD.EDU
          URL http://cfa-www.harvard.edu/iau/mpc.html  ISSN 1523-6714

                                   2000 SS43

Observations:
     K00S43S* C2000 09 26.33741 02 23 59.67 +05 42 54.6          18.2        704
     K00S43S  C2000 09 26.35205 02 24 11.03 +05 47 43.2          18.4        704
     K00S43S  C2000 09 26.36690 02 24 22.47 +05 52 34.8          18.3        704
     K00S43S  C2000 09 26.38137 02 24 33.66 +05 57 18.2          19.3        704
     K00S43S  C2000 09 26.39607 02 24 44.83 +06 02 05.3          19.2        704
     K00S43S  C2000 09 27.32537 02 37 52.34 +10 43 49.6          17.7        704
     K00S43S  C2000 09 27.34052 02 38 02.55 +10 48 06.6          17.9        704
     K00S43S  C2000 09 27.35573 02 38 12.76 +10 52 24.4                      704
     K00S43S  C2000 09 27.37101 02 38 23.01 +10 56 40.4                      704
     K00S43S  C2000 09 27.38616 02 38 33.07 +11 00 55.0          18.4        704
     K00S43S  C2000 09 27.96153 02 45 53.89 +13 32 29.1          17.4 R      046
     K00S43S FC2000 09 27.96164 02 45 53.74 +13 32 26.1                      557
     K00S43S  C2000 09 27.96201 02 45 54.25 +13 32 35.4                      046
     K00S43S  C2000 09 27.96245 02 45 54.48 +13 32 42.1                      046
     K00S43S  C2000 09 27.96261 02 45 54.31 +13 32 40.4                      557
     K00S43S  C2000 09 27.96310 02 45 54.68 +13 32 47.3                      557
     K00S43S  C2000 09 27.96350 02 45 55.21 +13 32 57.7                      046
     K00S43S  C2000 09 27.96399 02 45 55.46 +13 33 05.4                      046
     K00S43S  C2000 09 27.96450 02 45 55.85 +13 33 13.8                      046

Observer details:
046 Klet.  Observers J. Ticha, M. Tichy, M. Kocer, P. Jelinek.  0.57-m f/5.2
    reflector + CCD.
557 Ondrejov.  Observers P. Pravec,  P. Kusnirak.  0.65-m f/3.6 reflector + CCD.
704 Lincoln Laboratory ETS, New Mexico.  Observers M. Blythe, F. Shelly,
    M. Bezpalko, M. Elowitz, R. Huber, L. Manguso.  Measurers J. Stuart,
    R. Sayer, J. B. Evans, H. Viggh.  1.0-m f/2.15 reflector + CCD.

Orbital elements:
2000 SS43
Epoch 2000 Sept. 13.0 TT = JDT 2451800.5                Spahr
M 355.84641              (2000.0)            P               Q
n   0.43201276     Peri.  353.07081     +0.99996236     -0.00043434
a   1.7330257      Node     6.97169     +0.00438665     +0.88698651
e   0.4100201      Incl.    4.09367     -0.00748508     +0.46179513
P   2.28           H   24.2           G   0.15
From 19 observations 2000 Sept. 26-27.

Ephemeris:
2000 SS43                a,e,i = 1.73, 0.41, 4                   q = 1.0225
Date    TT    R. A. (2000) Decl.     Delta      r     Elong.  Phase     V
2000 09 23    01 22.20   -16 15.4    0.021    1.022   154.1    25.3    17.0
2000 09 24    01 43.29   -09 02.7    0.022    1.023   153.6    25.8    17.1
2000 09 25    02 02.10   -02 14.9    0.023    1.023   151.3    28.0    17.3
2000 09 26    02 18.74   +03 52.2    0.024    1.023   148.2    31.1    17.5
2000 09 27    02 33.38   +09 12.0    0.026    1.024   144.9    34.3    17.7
2000 09 28    02 46.22   +13 45.1    0.028    1.024   141.8    37.2    18.0
2000 09 29    02 57.48   +17 36.0    0.030    1.025   139.1    39.8    18.2
2000 09 30    03 07.37   +20 50.4    0.033    1.026   136.8    41.9    18.5
2000 10 01    03 16.06   +23 34.4    0.035    1.027   135.0    43.6    18.7
2000 10 02    03 23.72   +25 53.1    0.038    1.028   133.5    44.9    18.9
2000 10 03    03 30.47   +27 51.1    0.041    1.029   132.4    45.9    19.1
2000 10 04    03 36.44   +29 32.0    0.044    1.030   131.5    46.7    19.2
2000 10 05    03 41.74   +30 58.9    0.047    1.031   130.8    47.2    19.4
2000 10 06    03 46.43   +32 14.2    0.050    1.033   130.4    47.5    19.6
2000 10 07    03 50.60   +33 19.7    0.053    1.034   130.1    47.7    19.7
2000 10 08    03 54.31   +34 17.0    0.056    1.036   129.9    47.7    19.8
2000 10 09    03 57.60   +35 07.4    0.059    1.038   129.9    47.6    19.9
2000 10 10    04 00.53   +35 51.9    0.062    1.040   130.0    47.4    20.0
2000 10 11    04 03.12   +36 31.3    0.066    1.042   130.2    47.1    20.2
2000 10 12    04 05.41   +37 06.4    0.069    1.044   130.4    46.7    20.2
2000 10 13    04 07.43   +37 37.6    0.072    1.046   130.7    46.3    20.3

2000 10 18    04 14.20   +39 30.5    0.088    1.059   133.3    43.3    20.7
2000 10 23    04 16.73   +40 33.6    0.105    1.074   136.7    39.4    21.0
2000 10 28    04 16.31   +41 03.3    0.122    1.091   140.9    35.1    21.3
2000 11 02    04 13.93   +41 08.2    0.140    1.110   145.3    30.6    21.5
2000 11 07    04 10.43   +40 54.0    0.159    1.131   149.8    26.1    21.7
2000 11 12    04 06.41   +40 24.8    0.179    1.154   154.2    21.9    21.8

Timothy B. Spahr             (C) Copyright 2000 MPC           M.P.E.C. 2000-S62

Read MPEC 2000-S61 Read MPEC 2000-S63


Our Web policy. Index to the CBAT/MPC/ICQ pages.


Valid HTML 4.01!